Hoquiam, WA
on Sunday, November 11, 2012

Sunday
Previous Day Next Day
Daily Summary
 ActualAverageRecord
Temperature
Mean Temperature °F 47°F  
Max Temperature 51°F 52°F 63°F (1976)
Min Temperature 35°F 41°F 22°F (1955)
Degree Days
Heating Degree Days 22 18  
Month to date heating degree days 189  
Cooling Degree Days 0 0  
Month to date cooling degree days 0  
Year to date cooling degree days 23  
Moisture
Dew Point 41°F   
Average Humidity 93    
Maximum Humidity 100    
Minimum Humidity 88    
Precipitation
Precipitation 1.20 in 0.37 in 2.46 in (1999)
Month to date precipitation 3.91  
Year to date precipitation 50.33  
Wind
Wind Speed 11 mph   
Max Wind Speed 21 mph   
Max Gust Speed 33 mph   
Visibility 6 miles   
Events Rain   

Key: T is trace of precipitation, MM is missing value
Source: NWS Daily Summary
Time(PST)TemperatureDew PointHumidity Pressure Visibility Wind DirectionWind SpeedGust SpeedPrecipitationEvents Conditions
12:53 AM 35.1°F 32.0°F 89% 30.20 in 10.0 miles ENE 6.9 mph - N/A   Scattered Clouds
1:53 AM 36.0°F 33.1°F 89% 30.20 in 10.0 miles ENE 10.4 mph - N/A   Overcast
2:53 AM 36.0°F 34.0°F 93% 30.19 in 10.0 miles ENE 9.2 mph - 0.00 in   Overcast
3:53 AM 37.0°F 34.0°F 89% 30.19 in 10.0 miles ENE 8.1 mph - N/A   Overcast
4:53 AM 37.0°F 34.0°F 89% 30.18 in 10.0 miles ENE 10.4 mph - N/A   Overcast
5:53 AM 37.9°F 35.1°F 89% 30.18 in 10.0 miles ENE 8.1 mph - 0.00 in   Overcast
6:53 AM 37.4°F 35.6°F 93% 30.16 in 6.0 miles ENE 9.2 mph - N/A Rain Light Rain
7:53 AM 37.9°F 37.0°F 97% 30.17 in 7.0 miles ENE 9.2 mph - 0.03 in Rain Light Rain
8:49 AM 39.2°F 37.4°F 93% 30.16 in 7.0 miles NE 9.2 mph - 0.00 in Rain Light Rain
8:53 AM 39.0°F 37.0°F 93% 30.17 in 6.0 miles NE 12.7 mph - 0.00 in Rain Light Rain
9:35 AM 39.2°F 37.4°F 93% 30.16 in 2.5 miles NE 12.7 mph - 0.02 in Rain Light Rain
9:48 AM 39.2°F 39.2°F 100% 30.16 in 5.0 miles ENE 12.7 mph - 0.02 in Rain Light Rain
9:53 AM 39.9°F 39.0°F 97% 30.17 in 6.0 miles NE 13.8 mph - 0.02 in   Overcast
10:53 AM 42.1°F 39.9°F 92% 30.17 in 6.0 miles NE 13.8 mph - 0.01 in   Overcast
11:53 AM 43.0°F 41.0°F 93% 30.14 in 5.0 miles ENE 15.0 mph - 0.03 in Rain Light Rain
12:53 PM 43.0°F 42.1°F 97% 30.12 in 6.0 miles ENE 11.5 mph - 0.08 in Rain Light Rain
1:53 PM 44.1°F 42.1°F 93% 30.10 in 4.0 miles NE 13.8 mph - 0.06 in Rain Light Rain
2:53 PM 44.1°F 42.1°F 93% 30.08 in 3.0 miles NE 11.5 mph - 0.12 in Rain Rain
3:53 PM 44.1°F 42.1°F 93% 30.07 in 3.0 miles NE 15.0 mph 21.9 mph 0.12 in Rain Rain
4:19 PM 44.6°F 42.8°F 93% 30.04 in 2.5 miles NE 15.0 mph - 0.08 in Rain Rain
4:27 PM 44.6°F 42.8°F 93% 30.04 in 4.0 miles ENE 12.7 mph 21.9 mph 0.10 in Rain Light Rain
4:53 PM 44.1°F 42.1°F 93% 30.04 in 5.0 miles NE 12.7 mph 21.9 mph 0.15 in Rain Light Rain
5:53 PM 45.0°F 43.0°F 93% 30.04 in 7.0 miles NE 11.5 mph - 0.09 in Rain Light Rain
6:15 PM 44.6°F 42.8°F 93% 30.02 in 6.0 miles ENE 9.2 mph - 0.03 in Rain Light Rain
6:53 PM 45.0°F 44.1°F 97% 30.04 in 5.0 miles East 5.8 mph - 0.08 in Rain Light Rain
7:39 PM 48.2°F 46.4°F 93% 30.02 in 9.0 miles SE 16.1 mph 27.6 mph 0.05 in Rain Light Rain
7:53 PM 48.9°F 46.0°F 90% 30.03 in 6.0 miles SE 19.6 mph 26.5 mph 0.08 in Rain Light Rain
8:39 PM 46.4°F 44.6°F 93% 30.01 in 4.0 miles NE 9.2 mph - 0.13 in Rain Light Rain
8:53 PM 46.9°F 45.0°F 93% 30.02 in 5.0 miles NE 12.7 mph - 0.14 in Rain Light Rain
9:03 PM 46.4°F 44.6°F 93% 30.01 in 4.0 miles ENE 10.4 mph - N/A Rain Light Rain
9:28 PM 46.4°F 46.4°F 100% 30.02 in 2.5 miles NE 9.2 mph - 0.05 in Rain Light Rain
9:53 PM 46.9°F 46.0°F 97% 30.03 in 2.0 miles East 8.1 mph - 0.12 in Rain Light Rain
10:11 PM 48.2°F 46.4°F 93% 30.02 in 2.5 miles SE 16.1 mph 25.3 mph 0.02 in Rain Light Rain
10:24 PM 50.0°F 48.2°F 94% 30.02 in 3.0 miles SSE 20.7 mph 24.2 mph 0.04 in Rain Light Rain
10:53 PM 51.1°F 48.9°F 92% 30.04 in 3.0 miles South 19.6 mph 28.8 mph 0.05 in Rain Light Rain
11:05 PM 51.8°F 48.2°F 88% 30.02 in 4.0 miles South 18.4 mph 26.5 mph 0.02 in Rain Light Rain
11:53 PM 51.1°F 48.9°F 92% 30.03 in 4.0 miles SSE 18.4 mph 33.4 mph 0.02 in   Overcast
Moon Phase
Nov. 11 Nov. 13 Nov. 20 Nov. 28 Dec. 06
Sunrise:07:14 AM (PST) Moon Rise:04:27 AM (PST)11/11
Sunset:04:45 PM (PST) Moon Set:03:18 PM (PST)11/11

Copyright © 2014 The Weather Underground, Inc.